COSMOS 1691 DEB, 16269

Orbit data source: Space-Track

COSMOS 1691 DEB, 16269 is space debris in LEO originally from a launch on Wed, 09 Oct 1985 UTC launched from the Plesetsk Missile And Space Complex (PKMTR). Debris objects in space refer to the collection of defunct objects orbiting the Earth. Examples of debris include non-operational satellites, rocket bodies, and fragments generated from explosions, collisions, or faulty payload assembly.

Loading next visibility...
Identifier
16269, 1985-094N
Orbit
LEO
Country
Flag of CISCIS
Related business
Manufacturer
Unknown
Mission
Spacecraft
Bus & Motor
Unknown
Mass
Unknown
Launch date (UTC)
1985-10-09 (40 years ago)
Launch vehicle
Unknown
Launch site
Plesetsk Missile And Space Complex (PKMTR)
Object type
Payload
Rocket body
Debris
Shape & HBR
Unknown shape, 0.2 m
Radar Cross Section
Small (<0.1 m²)

Expand to show TLE details & history
Last TLE update: 14 hours ago

TLE from 14 hours ago
0 COSMOS 1691 DEB
1 16269U 85094N   26036.96292306  .00000024  00000-0  75071-4 0  9994
2 16269  82.6219  34.4285 0012836  58.6845 329.0928 12.62283882857078
Epoch: 2026-02-05T23:06Z
TLE epoch observation values (Epoch: 2026-02-05T23:06:36.552Z)
Latitude
27.48984°
Longitude
-84.48712°
Altitude
1,408.18 km
Speed
7.162 km/s
True Right ascension
02h 33m 05s
True Declination
27° 21' 40"
Sunlit
Object was in daylight at epoch
Visualization orbit readout
Latitude
Unknown
Longitude
Unknown
Altitude
Unknown
Speed
Unknown
Apparent Right ascension
Unknown
Apparent Declination
Unknown
Sunlit
N/A
Visualization observer readout
Local Sidereal Time
15:24:27
Azimuth
Unknown
Elevation
Unknown
Doppler factor
Unknown
Orbital elements
Apogee altitude
1,420.849 km
Perigee altitude
1,400.853 km
Semi-major axis
7,788.988 km
Eccentricity
0.00128
Inclination
82.6219°
RAAN
34.4285°
Arg. of periapsis
58.6845°
True anomaly
329.01714°
Mean anomaly
329.0928°
Eccentric anomaly
329.05498°
Mean motion
3.15734 °/min
Orbital period
114.02 mins
BSTAR
0.000075071
Loading maneuver chart data...
Computing Atmospheric mass density...
Loading historical data...
Loading historical data...
Loading historical data...
Loading historical data...
Loading historical data...
Loading historical data...
Loading historical data...

Documentation

Showing up to 5 results
|